Regional Weather Roundup
Issued by NWS Charleston, SC

Current Version | Previous Version | Graphics & Text | Print | Product List | Glossary On
Versions: 1 2 3 4 5 6 7 8 9 10 11 12 13 14 15 16 17 18 19 20 21 22 23 24 25 26 27 28 29 30 31 32 33 34 35 36 37 38 39 40 41 42 43 44 45 46 47 48 49 50
000
ASUS42 KCHS 251728
RWRCHS

REGIONAL WEATHER ROUNDUP
NATIONAL WEATHER SERVICE CHARLESTON SC
100 PM EDT WED MAY 25 2016

NOTE: "FAIR" INDICATES FEW OR NO CLOUDS BELOW 12,000 FEET WITH NO
SIGNIFICANT WEATHER AND/OR OBSTRUCTIONS TO VISIBILITY.

NOT ALL STATIONS ARE QUALITY CONTROLLED. USE DATA WITH CAUTION...
ESPECIALLY DEWPOINT OBSERVATIONS.

SCZ027-030-031-034>040-042>050-251800-
...SOUTHEAST SOUTH CAROLINA...

CITY           SKY/WX    TMP DP  RH WIND       PRES   REMARKS
N CHARLESTON   MOSUNNY   86  58  38 W6        30.23F
WATERFRONT PRK   N/A     79  69  71 VRB2      30.22F
MOUNT PLEASANT FAIR      84  72  65 S10       30.23F
JOHNS ISLAND   FAIR      84  70  61 S9G15     30.24F
PINOPOLIS        N/A     82  66  57 NE5       30.18S
MONCKS CORNER  CLOUDY    82  50  32 CALM      30.23F
SUMMERVILLE    PTSUNNY   86  61  42 S3        30.24F
BEAUFORT MCAS  MOSUNNY   86  64  47 S3        30.24F
BEAUFORT ARPT  FAIR      82  63  51 SW5       30.24S
HILTON HEAD IS MOSUNNY   82  68  61 S9        30.26S
WALTERBORO     MOSUNNY   88  50  27 CALM      30.24F
ALLENDALE      FAIR      86  50  28 VRB5      30.23F

...SOUTHERN MIDLANDS AND PEE DEE...

CITY           SKY/WX    TMP DP  RH WIND       PRES   REMARKS
GEORGETOWN     PTSUNNY   82  55  39 W3        30.24S
KINGSTREE      FAIR      82  54  36 CALM      30.22F
ORANGEBURG     SUNNY     86  56  35 CALM      30.23F
BARNWELL       PTSUNNY   90  59  35 SW7       30.24F
AIKEN          FAIR      82  52  34 S5        30.27F
MANNING        FAIR      84  55  37 S7        30.23F
COLUMBIA       PTSUNNY   89  52  28 W7        30.22F
SUMTER         MOSUNNY   85  58  40 W6        30.21F
FLORENCE       CLOUDY    85  55  35 CALM      30.22F
MYRTLE BEACH   NOT AVBL
N MYRTLE BEACH SUNNY     80  67  64 S12       30.23F

$$

GAZ063-065-086>088-099>101-113>116-118-119-134>141-150-251800-
...SOUTHEAST GEORGIA...

CITY           SKY/WX    TMP DP  RH WIND       PRES   REMARKS
SAVANNAH ARPT  MOSUNNY   84  59  42 NW5       30.24F
HUNTER AAF     PTSUNNY   82  65  56 SE5       30.21F
FORT STEWART   MOSUNNY   85  61  44 SE2       30.21F
STATESBORO     MOSUNNY   88  59  37 SW6       30.24S
SYLVANIA       MOSUNNY   89  55  31 W3        30.25S
CLAXTON        PTSUNNY   85  60  42 CALM      30.23F

...CSRA...CENTRAL AND FAR SOUTHEAST GEORGIA...

CITY           SKY/WX    TMP DP  RH WIND       PRES   REMARKS
THOMSON        SUNNY     87  58  36 SE6       30.28F
AUGUSTA-BUSH   MOSUNNY   84  56  38 VRB3      30.23F
AUGUSTA-DANIEL PTSUNNY  N/A N/A N/A MISG      30.25F
SWAINSBORO     FAIR      86  52  30 S6        30.24F
VIDALIA        MOSUNNY   86  54  32 E5        30.23F
EASTMAN        FAIR      85  57  38 W5        30.25F
HAZLEHURST     FAIR      87  54  32 CALM      30.22F
ALMA           MOSUNNY   87  55  33 SW6       30.23F
WAYCROSS       MOSUNNY   87  55  34 SW6       30.23S
JESUP          PTSUNNY   84  55  37 CALM      30.23F
BAXLEY         FAIR      88  52  29 S6        30.23S
BRUNSWICK      SUNNY     88  63  42 SE9       30.24F
SAINT SIMONS   SUNNY     82  68  62 SE10G16   30.24F

$$

SCZ027-028-034-036>038-045-046-048>050-GAZ119-141-251800-
...LAKE AND SUPPLEMENTAL COASTAL OBSERVATIONS...

STATION/POSITION TIME  TEMP    WIND        PRES    WAVE   SWELL
                       AIR SEA DIR/SP/G            HT/PER HT/PER/DIR
                 (UTC) (F)     (DEG/KT/KT) (MB)    (FT/S) (FT/S/D)
WINYAH BAY       1600   81     200/  5     1023.0
LAKE MURRAY      1600   81     200/  3/  4 1023.4F
ACE BASIN NERRS  1600   83     220/  1     1025.0S
FORT PULASKI     1700   80 76  160/  5/  8 1024.5F
SAPELO ISLAND    1700   85     150/  7     1024.0S

$$

ANZ835-935-AMZ111-154-330-350-352-354-370-450-454-472-251800-
...C-MAN AND BUOY OBSERVATIONS...

STATION/POSITION TIME  TEMP    WIND        PRES    WAVE   SWELL
                       AIR SEA DIR/SP/G            HT/PER HT/PER/DIR
                 (UTC) (F)     (DEG/KT/KT) (MB)    (FT/S) (FT/S/D)
BUOY 41004       1650   77 79  190/  2/  4 1024.2F   2/ 9   2/ 9
BUOY 41008       1650   77 78  200/  4/  4 1024.5F   2/ 9   2/100/ 9
FOLLY BEACH CMAN 1700   78     200/  8/ 10 1024.4F
CAPERS NEARSHORE 1708   76 76  200/  8/ 10 1024.1F
FRIPP NEARSHORE  1708   77 76  180/  6/  6 1023.8F


STATION/POSITION TIME  TEMP    WIND        PRES    WAVE   SWELL
                       AIR SEA DIR/SP/G            HT/PER HT/PER/DIR
                 (UTC) (F)     (DEG/KT/KT) (MB)    (FT/S) (FT/S/D)
5E ST. MARYS GA  1621      78                N/A     2/ 9
FRYING PAN BUOY  1700   76 77  240/  6/  8 1024.3F
BUOY 41025       1650   69 70  250/  8/  8 1023.6F   3/ 9   2/110/ 9
CAPE LOOKOUT NC  1700   78     250/  4/  6 1023.4F
BUOY 41002       1650   74 79   60/  8/ 10 1024.7F   3/ 8   3/ 80/ 8
BUOY 41010       1620   76 78   50/ 10/ 10 1024.3F
ST AUGUSTINE FL  1700   78 79  140/  8/  9 1025.2F


$$




USA.gov is the U.S. government's official web portal to all federal, state and local government web resources and services.